Weather reports worldwide

Advertisment
Lerwick, United Kingdom (3005): temperature & dewpoint: 17.11.2020 21:00:00 - 23.11.2020 21:00:00 (GMT)Lerwick, United Kingdom (3005): temperature -20cm & temperature -100cm: 17.11.2020 21:00:00 - 23.11.2020 21:00:00 (GMT)Lerwick, United Kingdom (3005): wind speed & gusts: 17.11.2020 21:00:00 - 23.11.2020 21:00:00 (GMT)Lerwick, United Kingdom (3005): wind direction: 17.11.2020 21:00:00 - 23.11.2020 21:00:00 (GMT)Lerwick, United Kingdom (3005): reduced air pressure: 17.11.2020 21:00:00 - 23.11.2020 21:00:00 (GMT)Lerwick, United Kingdom (3005): visibility: 17.11.2020 21:00:00 - 23.11.2020 21:00:00 (GMT)Lerwick, United Kingdom (3005): sunshine duration: 17.11.2020 21:00:00 - 23.11.2020 21:00:00 (GMT)Lerwick, United Kingdom (3005): precipitation: 17.11.2020 21:00:00 - 23.11.2020 21:00:00 (GMT)
Date & Time tt [°C] td [°C] tt -20cm [°C] tt -100cm [°C] ff [km/h] ff [kn] fx [km/h] fx [kn] dd ppp [hPa] vv [km] sd [min] rr [mm]
23.11.2020 21:00:00 8,5 6,4 - - 48 26 68 37 - 1000,4 14 0 0,0
23.11.2020 20:00:00 7,8 5,7 - - 41 22 68 37 - 1000,6 22 0 0,0
23.11.2020 19:00:00 8,6 5,3 - - 57 31 70 38 - 1000,5 30 0 0,0
23.11.2020 18:00:00 7,3 6,4 - - 48 26 67 36 - 1001,2 12 0 1,0
23.11.2020 17:00:00 7,3 5,5 - - 44 24 65 35 - 1001,7 23 0 1,0
23.11.2020 16:00:00 6,9 5,9 - - 42 23 61 33 - 1002,7 5 0 1,6
23.11.2020 15:00:00 6,6 5,3 - - 42 23 65 35 - 1003,9 4,7 0 1,2
23.11.2020 14:00:00 7,7 5,8 - - 44 24 55 30 - 1004,7 15 0 0,2
23.11.2020 13:00:00 8,1 6,3 - - 42 23 54 29 - 1005,8 30 0 0,0
23.11.2020 12:00:00 7,9 6,3 - - 37 20 61 33 - 1007,2 30 0 0,0
23.11.2020 11:00:00 7,7 6,5 - - 39 21 52 28 - 1008,2 5 0 0,2
23.11.2020 10:00:00 6,9 6,1 - - 34 18 - - SSW 1009,0 29 0 0,2
23.11.2020 09:00:00 6,8 5,9 7,0 8,9 29 16 - - SW 1009,7 10 0 1,0
23.11.2020 08:00:00 6,4 4,5 - - 26 14 - - WSW 1010,4 15 0 0,6
23.11.2020 07:00:00 6,6 3,6 - - 21 11 - - WNW 1010,9 55 0 0,0
23.11.2020 06:00:00 6,4 3,3 - - 22 12 - - WNW 1011,1 55 0 0,0
23.11.2020 05:00:00 5,9 2,8 - - 21 11 - - NW 1011,5 55 0 0,0
23.11.2020 04:00:00 5,2 2,3 - - 21 11 50 27 NW 1011,7 70 0 0,0
23.11.2020 03:00:00 5,7 2,4 - - 21 11 - - W 1011,5 50 0 0,6
23.11.2020 02:00:00 5,2 3,2 - - 18 10 - - WNW 1011,6 4,6 0 0,0
23.11.2020 01:00:00 6,5 2,1 - - 29 16 46 25 NW 1011,2 50 0 0,2
23.11.2020 00:00:00 6,4 3,3 - - 26 14 - - NW 1011,0 15 - 0,0
22.11.2020 23:00:00 6,1 2,3 - - 28 15 46 25 NW 1010,7 40 0 0,0
22.11.2020 22:00:00 6,1 1,4 - - 26 14 46 25 WNW 1010,3 45 0 0,0
22.11.2020 21:00:00 5,6 1,9 - - 29 16 59 32 NNW 1010,0 55 0 0,0
22.11.2020 20:00:00 6,0 2,0 - - 26 14 57 31 WNW 1009,8 45 0 1,0
22.11.2020 19:00:00 6,1 2,3 - - 31 17 52 28 W 1009,4 45 0 0,0
22.11.2020 18:00:00 6,2 3,2 - - 29 16 48 26 WNW 1009,1 35 0 0,0
22.11.2020 17:00:00 6,6 2,5 - - 35 19 59 32 WNW 1008,9 35 0 0,0
22.11.2020 16:00:00 6,7 1,8 - - 34 18 59 32 W 1008,5 35 0 0,4
22.11.2020 15:00:00 7,0 2,5 - - 31 17 50 27 NNW 1008,7 28 0 0,0
22.11.2020 14:00:00 6,3 2,6 - - 24 13 65 35 NNW 1008,6 29 0 0,0
22.11.2020 13:00:00 7,3 2,3 - - 42 23 61 33 NNW 1008,1 30 24 0,0
22.11.2020 12:00:00 6,9 3,1 - - 41 22 57 31 NW 1007,4 45 18 0,0
22.11.2020 11:00:00 6,9 2,6 - - 41 22 63 34 NW 1006,6 45 0 0,2
22.11.2020 10:00:00 6,3 3,5 - - 46 25 67 36 WNW 1005,6 5 6 0,4
22.11.2020 09:00:00 7,2 3,1 7,2 8,9 46 25 68 37 WNW 1004,6 30 0 0,0
22.11.2020 08:00:00 7,2 3,1 - - 44 24 68 37 NW 1003,3 28 0 0,0
22.11.2020 07:00:00 7,4 3,3 - - 52 28 70 38 WNW 1002,0 28 0 0,0
22.11.2020 06:00:00 7,1 3,3 - - 52 28 72 39 WNW 1000,4 19 0 0,2
22.11.2020 05:00:00 7,5 4,0 - - 50 27 70 38 NW 998,9 24 0 0,0
22.11.2020 04:00:00 6,9 4,4 - - 48 26 89 48 WNW 996,9 26 0 0,6
22.11.2020 03:00:00 7,4 4,4 - - 74 40 98 53 NW 996,3 17 0 0,0
22.11.2020 02:00:00 7,4 4,4 - - 63 34 107 58 NW 996,8 13 0 0,2
22.11.2020 01:00:00 7,4 3,9 - - 70 38 98 53 W 997,6 15 0 0,0
22.11.2020 00:00:00 7,3 3,4 - - 70 38 96 52 NW 997,3 8 - 0,0
21.11.2020 23:00:00 5,3 3,1 - - 70 38 106 57 NW 997,9 25 0 0,6
21.11.2020 22:00:00 6,2 3,5 - - 67 36 111 60 W 997,8 12 0 0,6
21.11.2020 21:00:00 5,0 2,1 - - 78 42 113 61 WNW 997,9 28 0 0,2
21.11.2020 20:00:00 6,8 2,4 - - 72 39 107 58 WNW 998,0 20 0 0,4
21.11.2020 19:00:00 5,7 3,0 - - 59 32 122 66 W 998,2 19 0 0,4
21.11.2020 18:00:00 6,8 1,9 - - 68 37 115 62 WNW 998,0 20 0 0,2
21.11.2020 17:00:00 6,0 2,9 - - 74 40 100 54 WNW 997,7 16 0 0,2
21.11.2020 16:00:00 6,1 2,4 - - 63 34 96 52 WNW 997,8 15 0 0,2
21.11.2020 15:00:00 7,4 2,1 - - 76 41 104 56 WNW 997,6 18 0 0,0
21.11.2020 14:00:00 6,3 3,1 - - 68 37 104 56 W 997,8 16 12 0,0
21.11.2020 13:00:00 7,4 2,6 - - 70 38 120 65 W 997,8 13 18 0,0
21.11.2020 12:00:00 7,3 -0,2 - - 81 44 113 61 W 997,5 24 0 0,2
21.11.2020 11:00:00 5,1 1,7 - - 61 33 102 55 WNW 997,9 35 0 0,0
21.11.2020 10:00:00 8,3 3,0 - - 68 37 98 53 WSW 997,1 14 0 0,2
21.11.2020 09:00:00 8,4 1,6 7,4 9,0 70 38 104 56 WSW 996,8 16 0 0,0
21.11.2020 08:00:00 8,2 1,1 - - 76 41 104 56 W 996,7 16 0 0,0
21.11.2020 07:00:00 7,5 2,5 - - 65 35 100 54 W 997,0 14 0 0,0
21.11.2020 06:00:00 5,7 3,2 - - 85 46 130 70 W 997,2 11 0 0,0
21.11.2020 05:00:00 6,2 3,6 - - 65 35 106 57 W 997,0 11 0 0,4
21.11.2020 04:00:00 8,7 3,8 - - 72 39 106 57 W 996,7 12 0 0,0
21.11.2020 03:00:00 8,5 3,3 - - 78 42 106 57 W 997,5 12 0 0,0
21.11.2020 02:00:00 9,0 5,0 - - 72 39 106 57 W 997,2 12 0 0,2
21.11.2020 01:00:00 8,9 5,5 - - 67 36 100 54 W 997,9 10 0 0,4
21.11.2020 00:00:00 9,5 5,0 - - 67 36 107 58 WSW 998,2 8 - 0,0
20.11.2020 23:00:00 10,0 5,7 - - 70 38 109 59 W 998,4 7 0 0,0
20.11.2020 22:00:00 10,8 7,4 - - 81 44 107 58 WSW 997,5 9 0 0,0
20.11.2020 21:00:00 10,7 9,0 - - 68 37 89 48 WSW 998,4 18 0 0,0
20.11.2020 20:00:00 9,9 9,5 - - 70 38 89 48 SW 999,1 10 0 0,2
20.11.2020 19:00:00 9,0 8,8 - - 59 32 74 40 SSW 1001,0 3,3 0 1,0
20.11.2020 18:00:00 8,7 8,7 - - 55 30 78 42 SSW 1002,7 2,0 0 3,0
20.11.2020 17:00:00 8,2 8,2 - - 57 31 78 42 S 1005,0 1,7 0 3,6
20.11.2020 16:00:00 7,9 7,7 - - 55 30 74 40 S 1007,3 3,1 0 1,0
20.11.2020 15:00:00 8,3 6,9 - - 52 28 72 39 S 1009,6 16 0 0,0
20.11.2020 14:00:00 7,7 5,5 - - 59 32 78 42 S 1012,0 19 0 0,0
20.11.2020 13:00:00 7,4 5,9 - - 48 26 67 36 S 1015,1 21 0 0,0
20.11.2020 12:00:00 6,6 3,6 - - 48 26 65 35 S 1017,2 30 0 0,0
20.11.2020 11:00:00 6,1 1,8 - - 48 26 61 33 S 1018,1 45 0 0,0
20.11.2020 10:00:00 5,5 3,0 - - 42 23 59 32 S 1019,7 55 0 0,2
20.11.2020 09:00:00 4,5 2,2 7,5 9,0 35 19 50 27 S 1020,3 70 0 0,2
20.11.2020 08:00:00 5,0 1,3 - - 31 17 - - S 1022,0 65 0 0,0
20.11.2020 07:00:00 4,3 -0,4 - - 24 13 - - S 1022,4 65 0 0,0
20.11.2020 06:00:00 3,5 -1,6 - - 21 11 - - S 1023,8 75 0 0,0
20.11.2020 05:00:00 1,1 -2,3 - - 5 3 - - SSW 1024,1 50 0 0,0
20.11.2020 04:00:00 2,1 -2,5 - - 8 4 - - S 1024,3 55 0 0,0
20.11.2020 03:00:00 1,3 -2,4 - - 2 1 - - SSW 1024,9 60 0 0,0
20.11.2020 02:00:00 2,1 -2,7 - - 9 5 - - NE 1025,0 55 0 0,0
20.11.2020 01:00:00 1,1 -2,1 - - 8 4 - - WNW 1025,7 60 0 0,0
20.11.2020 00:00:00 0,8 -2,4 - - 8 4 - - N 1025,3 40 - 0,0
19.11.2020 23:00:00 2,0 -1,0 - - 11 6 - - N 1025,3 45 0 0,0
19.11.2020 22:00:00 2,7 -1,4 - - 9 5 - - NNW 1025,0 50 0 0,0
19.11.2020 21:00:00 3,1 -2,5 - - 13 7 - - NNW 1024,4 50 0 0,0
19.11.2020 20:00:00 2,8 -2,3 - - 16 9 - - NNW 1023,7 45 0 0,0
19.11.2020 19:00:00 2,1 -1,2 - - 15 8 - - NNW 1023,3 45 0 0,0
19.11.2020 18:00:00 1,0 -0,4 - - 29 16 54 29 N 1022,4 11 0 0,0
19.11.2020 17:00:00 1,0 -1,0 - - 29 16 50 27 N 1021,8 75 0 0,0
19.11.2020 16:00:00 1,7 -1,9 - - 22 12 54 29 NNW 1021,1 3,0 0 0,0
19.11.2020 15:00:00 1,5 -1,0 - - 24 13 57 31 NNW 1021,0 35 0 0,0
19.11.2020 14:00:00 1,1 -1,2 - - 34 18 54 29 N 1020,8 3,1 24 0,0
19.11.2020 13:00:00 0,9 -1,2 - - 42 23 63 34 N 1019,4 4,0 18 0,0
19.11.2020 12:00:00 2,5 -3,4 - - 35 19 54 29 NNW 1018,2 50 0 0,0
19.11.2020 11:00:00 1,0 -1,2 - - 39 21 57 31 N 1017,4 10 24 0,0
19.11.2020 10:00:00 1,7 -1,9 - - 35 19 63 34 NNW 1016,3 35 6 0,0
19.11.2020 09:00:00 1,7 -2,3 8,2 9,0 37 20 63 34 NNW 1015,1 40 0 0,0
19.11.2020 08:00:00 1,2 1,1 - - 29 16 61 33 NW 1014,2 45 0 0,0
19.11.2020 07:00:00 0,3 -1,4 - - 26 14 63 34 NNW 1013,5 50 0 0,0
19.11.2020 06:00:00 1,1 0,5 - - 34 18 65 35 NNW 1012,5 55 0 0,0
19.11.2020 05:00:00 1,3 1,0 - - 34 18 68 37 N 1011,3 26 0 0,0
19.11.2020 04:00:00 1,4 0,1 - - 42 23 65 35 N 1010,0 50 0 0,0
19.11.2020 03:00:00 1,6 -3,1 - - 46 25 81 44 N 1008,5 35 0 0,0
19.11.2020 02:00:00 1,7 -1,9 - - 46 25 76 41 N 1006,9 11 0 0,0
19.11.2020 01:00:00 2,2 -2,5 - - 41 22 80 43 N 1004,5 55 0 0,0
19.11.2020 00:00:00 2,6 -2,1 - - 48 26 87 47 N 1002,4 30 - 0,0
18.11.2020 23:00:00 3,1 -0,9 - - 57 31 83 45 NNE 1000,1 26 0 0,0
18.11.2020 22:00:00 3,1 0,9 - - 57 31 93 50 NNE 997,6 10 0 1,4
18.11.2020 21:00:00 3,5 2,1 - - 65 35 98 53 NNE 995,1 4,0 0 2,2
18.11.2020 20:00:00 4,0 2,9 - - 76 41 106 57 NNE 992,8 3,8 0 2,4
18.11.2020 19:00:00 4,9 3,7 - - 70 38 96 52 NE 991,4 3,3 0 2,0
18.11.2020 18:00:00 5,0 4,5 - - 55 30 85 46 NE 990,3 2,9 0 2,0
18.11.2020 17:00:00 5,0 4,7 - - 52 28 78 42 NE 990,6 1,5 0 2,0
18.11.2020 16:00:00 5,3 4,9 - - 59 32 78 42 NE 990,5 1,0 0 1,6
18.11.2020 15:00:00 5,9 5,5 - - 54 29 74 40 NE 990,9 1,4 0 1,4
18.11.2020 14:00:00 6,9 6,6 - - 39 21 55 30 NE 991,1 2,7 0 2,0
18.11.2020 13:00:00 7,8 7,6 - - 35 19 52 28 NE 991,3 2,8 0 4,4
18.11.2020 12:00:00 8,7 8,5 - - 18 10 - - NNW 991,9 3,0 0 2,6
18.11.2020 11:00:00 8,8 8,5 - - 26 14 57 31 WNW 992,3 4,2 0 1,2
18.11.2020 10:00:00 9,2 9,1 - - 15 8 - - N 992,8 8 0 4,4
18.11.2020 09:00:00 8,5 8,5 8,7 9,0 21 11 - - NE 994,0 2,0 0 6,4
18.11.2020 08:00:00 8,5 8,5 - - 21 11 - - ENE 994,6 0,6 0 3,4
18.11.2020 07:00:00 8,5 8,5 - - 21 11 - - E 995,4 0,5 0 1,0
18.11.2020 06:00:00 8,6 8,5 - - 18 10 - - E 996,8 3,5 0 1,2
18.11.2020 05:00:00 8,3 7,9 - - 22 12 - - E 997,9 7 0 1,2
18.11.2020 04:00:00 8,6 8,5 - - 16 9 - - E 998,9 5 0 1,8
18.11.2020 03:00:00 8,7 8,6 - - 15 8 - - ENE 999,8 4,7 0 1,8
18.11.2020 02:00:00 8,4 8,4 - - 15 8 - - ENE 1001,1 1,7 0 1,8
18.11.2020 01:00:00 8,1 8,0 - - 13 7 - - NE 1001,9 0,4 0 1,8
18.11.2020 00:00:00 8,2 8,1 - - 9 5 - - NE 1002,8 1,0 - 1,0
17.11.2020 23:00:00 9,4 8,9 - - 13 7 - - NW 1002,7 6 0 0,2
17.11.2020 22:00:00 9,6 9,0 - - 24 13 - - WNW 1002,2 1,8 0 0,0
17.11.2020 21:00:00 10,3 9,7 - - 28 15 - - NW 1002,1 10 0 0,0

tt = temperature
td = dewpoint
tt -20cm = temperature -20cm
tt -100cm = temperature -100cm
ff = wind speed
fx = gusts
dd = wind direction
ppp = reduced air pressure
vv = visibility
sd = sunshine duration
rr = precipitation

Next stations